Lethbridge,

9:58 PM MDT on September 21, 2017 (GMT -0600)
Lethbridge

Weather History for CYQL - June, 2013

Change the Weather History Date:

Wednesday, June 26, 2013

  Actual Average Record
Temperature  
Mean Temperature 60 °F -  
Max Temperature 71 °F 70 °F 90 °F (2017)
Min Temperature 48 °F 46 °F 40 °F (2013)
Degree Days  
Heating Degree Days 6    
Growing Degree Days 10 (Base 50)    
Moisture  
Dew Point 45 °F    
Average Humidity 53    
Maximum Humidity 87    
Minimum Humidity 33    
Precipitation  
Precipitation 0.00 in - - ()
Sea Level Pressure  
Sea Level Pressure 29.85 in    
Wind  
Wind Speed 15 mph ()    
Max Wind Speed 28 mph    
Max Gust Speed 39 mph    
Visibility 9.3 miles    
Events      
Averages and records for this station are not official NWS values.
T = Trace of Precipitation, MM = Missing Value Source: Averaged Metar Reports

Daily Weather History Graph

Daily Weather History Graph

Search for Another Location

Airport or City:

Trip Planner

Search our weather history database for the weather conditions in past years. The results will help you decide how hot, cold, wet, or windy it might be!

Date:

Astronomy

Jun. 26, 2013 Rise Set
Actual Time 5:25 AM MDT 9:42 PM MDT
Civil Twilight 4:41 AM MDT 10:26 PM MDT
Nautical Twilight 3:38 AM MDT 11:29 PM MDT
Astronomical Twilight 2:06 AM MDT 1:01 AM MDT
Moon 11:40 PM MDT (6/26) 9:45 AM MDT (6/26)
Length of Visible Light 17h 44m
Length of Day
16h 17m
Waning Gibbous, 85% of the Moon is Illuminated
Jun 26
Waning Gibbous
Jun 29
Last Quarter
Jul 8
New
Jul 15
First Quarter
Jul 22
Full

Hourly Weather History & Observations

Time (MDT) Temp. Dew Point Humidity Pressure Visibility Wind Dir Wind Speed Gust Speed Precip Events Conditions
12:00 AM 56 °F 45 °F 57% 29.74 in 10 mi SW 12.7 mph - -  
12:00 AM 55.4 °F 44.6 °F 67% 29.74 in 9.0 mi SW 12.7 mph - N/A   Clear
1:00 AM 50.0 °F 46.4 °F 87% 29.77 in 9.0 mi West 4.6 mph - N/A   Clear
2:00 AM 51.8 °F 44.6 °F 76% 29.75 in 9.0 mi WSW 11.5 mph - N/A   Clear
3:00 AM 51.8 °F 46.4 °F 82% 29.76 in 9.0 mi SW 13.8 mph - N/A   Clear
4:00 AM 53.6 °F 44.6 °F 72% 29.78 in 9.0 mi WSW 13.8 mph 20.7 mph N/A   Clear
5:00 AM 57.2 °F 42.8 °F 59% 29.78 in 9.0 mi WSW 19.6 mph 27.6 mph N/A   Clear
6:00 AM 58 °F 42 °F 45% 29.80 in 10 mi WSW 26.5 mph - -  
6:00 AM 59.0 °F 42.8 °F 55% 29.79 in 40.0 mi WSW 27.6 mph 34.5 mph N/A   Partly Cloudy
7:00 AM 57.2 °F 46.4 °F 67% 29.83 in 40.0 mi SW 11.5 mph 19.6 mph N/A   Partly Cloudy
8:00 AM 59.0 °F 46.4 °F 63% 29.84 in 40.0 mi SW 11.5 mph 17.3 mph N/A   Partly Cloudy
9:00 AM 64.4 °F 46.4 °F 52% 29.84 in 40.0 mi WSW 19.6 mph 28.8 mph N/A   Scattered Clouds
10:00 AM 66.2 °F 46.4 °F 49% 29.86 in 40.0 mi West 23.0 mph 33.4 mph N/A   Scattered Clouds
11:00 AM 66.2 °F 46.4 °F 49% 29.87 in 40.0 mi West 25.3 mph 39.1 mph N/A   Mostly Cloudy
12:00 PM 67 °F 47 °F 37% 29.88 in 10 mi West 24.2 mph - -  
12:00 PM 66.2 °F 46.4 °F 49% 29.88 in 40.0 mi West 23.0 mph 34.5 mph N/A   Mostly Cloudy
1:00 PM 68.0 °F 44.6 °F 43% 29.91 in 40.0 mi WSW 23.0 mph 34.5 mph N/A   Overcast
2:00 PM 69.8 °F 46.4 °F 43% 29.90 in 40.0 mi WSW 24.2 mph 34.5 mph N/A   Mostly Cloudy
3:00 PM 69.8 °F 46.4 °F 43% 29.90 in 40.0 mi SW 20.7 mph 28.8 mph N/A   Mostly Cloudy
4:00 PM 71.6 °F 44.6 °F 38% 29.88 in 40.0 mi WSW 19.6 mph 29.9 mph N/A   Mostly Cloudy
5:00 PM 69.8 °F 42.8 °F 38% 29.88 in 40.0 mi WSW 25.3 mph 32.2 mph N/A   Mostly Cloudy
6:00 PM 70 °F 47 °F 33% 29.90 in 10 mi West 16.1 mph - -  
6:00 PM 69.8 °F 46.4 °F 43% 29.90 in 40.0 mi West 17.3 mph 23.0 mph N/A   Mostly Cloudy
7:00 PM 69.8 °F 46.4 °F 43% 29.91 in 40.0 mi West 15.0 mph 25.3 mph N/A   Mostly Cloudy
8:00 PM 66.2 °F 44.6 °F 46% 29.92 in 40.0 mi West 18.4 mph - N/A   Mostly Cloudy
9:00 PM 64.4 °F 44.6 °F 49% 29.93 in 40.0 mi West 13.8 mph 24.2 mph N/A   Mostly Cloudy
10:00 PM 59.0 °F 46.4 °F 63% 29.96 in 9.0 mi WSW 15.0 mph - N/A   Clear
11:00 PM 62.6 °F 42.8 °F 48% 29.95 in 9.0 mi WSW 26.5 mph 32.2 mph N/A   Scattered Clouds